GEFSSE_500_meanwind_360.txt.gz
Wind_Speed
8 8 7 7 8 8 8 9 9 9 9 8 9 9 8 7 7 7 7 6 6 5 6 5 5 5 5 4 4 4 3 3 2 1 2 3 2 2 2 2 2 2 2
8 8 8 7 8 8 8 9 8 8 9 9 8 8 9 8 7 7 7 6 6 6 5 5 5 4 4 4 4 3 3 3 2 2 2 2 2 2 1 1 2 2 3
8 8 8 7 8 8 8 8 8 8 8 8 8 7 8 8 7 7 6 6 6 6 5 5 4 4 3 3 3 2 2 2 2 2 2 2 1 1 1 1 1 2 2
7 7 8 8 8 8 8 8 7 7 8 8 7 7 7 6 7 6 6 6 6 6 6 5 4 3 3 2 2 1 2 1 1 1 1 1 1 1 1 1 1 1 2
6 6 7 8 7 8 8 7 7 7 7 7 6 6 6 6 6 6 5 6 5 5 5 4 4 3 3 2 1 1 1 0 0 1 1 1 0 0 1 1 1 1 2
7 6 7 7 7 8 8 8 7 7 7 7 6 6 6 6 5 5 5 5 6 5 4 4 3 3 2 1 1 1 1 1 1 1 1 1 0 1 1 2 2 2 2
8 7 8 8 8 9 9 9 8 7 7 7 7 7 6 5 5 5 4 4 5 4 4 4 3 2 2 2 2 1 2 2 2 1 1 1 1 1 2 3 3 3 3
8 9 9 8 9 9 9 9 8 8 7 6 6 6 6 5 4 4 3 3 3 3 3 3 3 2 2 2 2 3 3 2 2 2 1 1 2 2 3 3 3 3 4
9 10 9 9 9 9 8 8 8 8 7 6 6 5 5 5 4 4 4 3 3 3 2 3 3 3 3 2 3 3 3 2 2 2 2 2 2 3 3 4 4 4 5
10 10 9 8 8 8 8 8 7 7 7 6 6 6 5 5 5 4 3 3 3 2 2 3 3 3 3 3 3 3 3 3 3 3 3 3 3 4 4 4 5 5 5
10 10 9 9 8 8 8 7 7 6 6 6 6 5 5 5 4 4 3 3 3 2 2 2 3 3 3 3 3 3 4 4 4 4 3 4 4 5 5 5 5 5 6
11 10 9 9 8 8 8 7 7 6 5 5 5 5 5 4 4 4 3 3 3 3 2 3 3 3 3 3 3 4 4 4 3 4 4 4 5 6 6 6 6 6 6
9 9 9 9 8 8 7 6 6 5 5 5 5 4 4 4 3 3 3 3 3 3 2 3 4 4 4 4 4 5 4 4 4 4 4 5 5 6 6 6 6 6 7
8 8 8 8 7 7 6 5 5 5 4 4 4 3 3 3 3 3 4 3 3 3 3 3 4 4 4 5 5 5 5 5 5 5 5 5 5 5 6 6 6 7 7
8 7 7 7 6 5 5 5 4 5 4 4 4 3 3 3 2 3 4 4 4 4 4 4 4 4 5 6 6 6 6 5 6 6 6 5 6 6 7 7 7 6 6
7 7 6 6 5 5 4 4 4 4 4 4 3 3 3 3 3 3 4 4 5 5 5 4 5 5 5 6 6 6 6 6 7 7 7 7 7 7 7 7 7 7 7
7 6 6 6 6 5 5 4 4 4 4 4 4 4 4 4 4 4 5 5 6 5 5 6 6 6 6 7 7 7 7 7 7 8 8 8 8 8 8 8 8 8 8
7 7 6 6 6 5 5 5 5 4 4 4 4 4 5 5 5 5 6 6 6 6 6 6 7 7 7 7 8 8 8 9 9 8 9 9 9 9 9 9 9 9 9
7 7 6 6 6 6 6 6 6 5 5 5 5 6 6 6 7 7 7 8 8 7 7 7 8 8 8 9 9 9 9 10 10 10 10 10 10 11 11 11 11 10 10
7 7 6 6 6 6 6 6 6 7 7 7 7 7 7 7 8 8 9 9 9 9 9 9 9 9 10 10 10 10 10 10 11 11 11 11 12 12 12 12 12 12 12
7 7 7 7 6 6 6 7 7 8 8 8 7 8 8 8 9 9 10 11 10 10 10 10 11 11 11 11 11 12 11 12 12 13 12 12 13 13 13 13 14 14 14
7 7 7 7 7 7 7 8 8 8 9 9 9 9 9 9 10 11 10 11 11 12 12 12 12 12 12 12 12 13 13 13 14 14 14 13 13 13 14 15 16 15 15
7 7 7 8 8 8 8 9 9 9 9 9 10 10 10 10 12 12 12 12 13 13 12 13 14 14 14 13 13 13 13 14 15 16 16 15 15 15 15 15 16 16 16
7 8 8 9 9 9 9 10 10 10 10 10 11 11 11 12 12 12 13 14 14 14 14 14 15 16 16 16 15 14 15 16 16 17 17 17 17 16 16 17 17 17 17
8 9 10 10 10 10 10 11 10 10 11 11 11 11 13 13 14 14 15 15 15 16 16 17 17 17 18 17 17 17 17 17 18 18 18 18 17 17 18 18 18 19 19
8 9 11 11 10 10 10 11 12 12 12 12 13 13 14 15 15 16 16 17 18 18 18 18 18 18 18 18 18 18 19 19 19 19 19 18 18 18 19 19 19 19 20

GEFSSE_500_meanwind_366.txt.gz
Wind_Speed
8 9 9 9 9 8 8 8 9 9 9 9 9 9 9 9 9 8 8 7 7 6 6 6 5 5 5 5 4 4 4 4 4 3 3 3 3 3 2 3 2 3 2
8 8 8 9 9 9 8 8 8 9 9 9 8 9 9 8 8 8 8 7 6 6 6 5 5 5 4 4 4 3 3 3 3 3 3 3 3 2 2 2 2 2 2
7 7 8 8 8 8 8 8 8 9 9 8 8 9 8 7 7 7 6 6 6 6 5 5 5 5 4 3 3 3 2 3 3 3 3 2 2 2 1 1 1 1 1
7 6 7 8 7 7 8 9 9 9 8 8 8 8 7 7 7 7 7 6 5 5 4 4 5 5 3 3 3 3 2 2 2 2 2 1 1 1 0 1 0 1 1
6 6 7 7 6 7 7 8 8 8 8 7 8 7 7 7 6 6 7 7 6 5 5 4 4 4 2 2 3 3 2 1 1 1 1 1 1 1 0 1 1 1 2
7 7 8 7 7 7 7 7 7 7 7 7 7 7 7 6 6 6 6 6 6 5 5 4 3 3 1 2 2 2 2 2 2 1 1 1 1 1 1 2 2 2 3
8 7 7 7 7 7 7 6 7 7 7 7 7 6 6 6 5 5 5 5 5 4 4 4 3 2 1 2 2 2 2 1 1 1 1 1 2 2 2 2 3 3 3
8 8 7 8 7 7 7 7 7 7 7 6 6 6 6 5 5 4 5 5 4 4 3 3 1 1 1 2 2 2 2 1 1 1 1 1 2 2 2 3 3 4 4
8 7 7 7 7 7 7 6 5 5 6 5 5 5 5 5 4 4 4 3 3 3 2 1 1 1 1 2 1 2 1 1 1 1 1 2 2 3 3 3 3 4 5
9 8 7 6 6 6 5 5 5 5 5 4 4 4 4 4 4 4 3 3 2 2 1 1 1 0 2 1 1 1 0 1 1 1 2 2 3 3 3 4 4 5 5
8 8 7 5 6 6 5 4 4 4 4 4 4 4 4 4 4 3 3 2 2 2 1 1 1 1 1 1 2 2 1 1 2 2 3 3 3 3 4 5 5 6 6
7 7 7 6 6 6 5 4 3 4 4 4 3 3 3 3 2 2 2 2 1 1 1 1 1 2 2 3 3 3 2 2 3 3 3 4 4 4 5 5 5 6 6
6 6 6 5 5 5 4 3 3 3 4 3 3 2 1 1 1 1 2 2 2 2 2 2 3 3 3 3 3 3 3 4 4 5 5 5 5 5 5 6 6 6 6
6 5 5 4 4 4 4 3 3 3 3 3 2 2 1 1 1 2 2 2 2 2 3 3 3 4 4 4 4 4 4 4 5 5 5 6 6 6 6 6 6 7 7
4 4 4 4 3 3 3 3 2 3 2 2 2 1 1 2 2 2 2 2 3 3 3 4 4 4 4 5 5 4 5 6 6 6 6 7 7 7 7 7 7 8 8
5 4 4 3 3 3 2 2 2 2 2 2 1 2 3 3 3 3 3 3 4 4 4 5 5 6 6 6 5 6 6 7 7 8 8 8 8 9 9 9 8 8 8
5 4 4 4 3 2 2 2 2 2 2 2 2 3 3 4 4 5 5 5 5 5 6 6 7 7 7 7 7 7 7 7 8 8 9 9 10 10 10 10 10 10 10
4 3 3 3 3 3 3 3 2 3 3 4 4 4 5 5 4 5 6 7 7 7 7 8 9 8 8 8 8 8 8 9 9 9 10 10 11 11 11 11 11 11 11
4 4 3 4 3 3 3 3 4 4 5 5 6 6 6 5 6 6 7 7 8 8 8 9 10 9 9 9 10 10 10 10 10 11 11 11 12 12 12 12 12 12 12
4 5 5 5 5 5 5 5 5 5 6 7 7 7 7 7 7 8 9 9 9 9 9 8 9 9 9 10 11 11 11 11 11 12 12 12 12 12 12 13 13 13 13
6 6 6 6 6 6 6 6 6 6 7 8 8 9 9 9 9 9 10 10 10 10 10 10 10 10 11 12 11 12 12 12 12 13 13 14 13 13 14 14 15 14 14
6 7 7 6 7 7 7 7 7 8 8 8 8 9 9 10 10 11 11 11 11 11 11 12 12 12 12 12 12 12 12 13 13 14 14 15 15 15 15 15 14 14 14
7 8 8 8 7 8 8 8 9 9 9 9 9 9 10 10 11 12 12 12 12 12 12 13 13 12 13 13 14 14 14 14 15 15 15 16 16 16 16 16 16 16 16
7 8 9 8 8 9 9 10 10 10 10 10 10 11 12 12 13 13 12 12 12 13 14 14 14 14 15 15 15 15 15 15 16 15 15 16 16 16 16 16 16 17 17
8 8 9 8 9 10 10 11 11 11 11 12 12 13 13 13 13 13 13 13 14 14 15 15 15 15 15 15 16 17 17 17 17 17 17 17 17 16 16 15 16 17 17
8 9 9 9 10 10 11 11 11 12 13 13 13 13 13 13 13 13 14 14 15 16 16 16 16 16 16 17 17 18 19 19 19 18 18 18 18 17 16 16 16 17 18

GEFSSE_500_meanwind_372.txt.gz
Wind_Speed
7 7 6 6 7 7 7 7 6 6 6 6 6 6 5 5 5 4 4 4 4 4 4 4 3 3 3 3 4 5 5 5 5 5 5 4 4 4 3 3 2 2 1
7 7 6 6 6 7 7 6 6 6 5 6 5 5 5 5 4 4 3 4 3 3 3 3 3 2 3 3 3 4 4 4 4 4 4 3 3 3 2 2 2 2 1
6 6 5 5 6 6 6 6 5 5 6 5 5 5 4 4 4 3 3 3 3 3 2 2 2 2 2 3 3 3 4 3 3 3 3 3 3 2 2 2 2 1 1
5 5 5 5 6 6 6 6 5 6 6 5 5 4 4 4 3 3 2 2 2 2 2 1 2 2 2 2 2 3 3 3 3 3 3 2 2 2 2 2 1 1 0
5 6 6 6 6 6 6 6 6 5 5 4 4 4 4 3 3 3 2 2 1 1 1 1 1 1 1 1 1 2 2 2 2 2 2 2 2 2 2 1 0 0 0
5 5 6 7 7 6 6 5 5 5 4 4 4 4 4 3 3 3 3 2 1 1 1 0 0 1 1 1 1 1 2 2 2 2 2 2 2 2 1 0 0 1 1
6 7 7 6 6 6 6 5 4 4 3 4 4 3 4 4 4 3 3 2 1 1 1 1 1 0 1 1 1 1 1 1 1 1 1 1 1 0 0 1 1 1 1
6 7 6 6 6 6 5 5 5 4 3 3 4 4 4 4 4 4 3 3 2 2 2 2 1 1 1 1 0 1 1 1 1 1 1 1 1 1 1 2 2 2 2
7 6 6 6 6 5 5 5 5 4 4 3 3 3 3 4 3 4 4 4 4 3 3 2 2 1 1 0 1 1 0 1 0 1 1 1 1 2 2 2 2 3 3
7 7 6 6 5 4 4 4 4 4 4 3 3 3 3 3 4 3 3 4 4 3 3 3 2 1 1 1 1 1 1 0 0 1 1 1 1 2 2 3 4 4 4
8 7 6 6 5 5 5 5 4 4 4 3 3 3 3 3 3 3 3 4 4 4 3 3 3 2 1 1 1 1 1 1 1 1 2 2 3 3 3 4 5 5 5
8 7 7 6 6 5 4 4 4 4 3 3 3 3 3 3 3 3 3 3 4 4 4 3 2 2 3 3 3 2 2 2 3 3 3 3 4 4 4 5 5 6 6
8 8 7 7 6 5 4 4 4 4 3 4 4 4 4 4 4 4 3 4 5 4 3 3 3 4 4 3 3 3 3 4 4 4 4 5 5 5 6 6 6 6 6
8 8 8 7 7 6 4 4 4 4 3 4 4 4 4 5 6 5 5 5 5 4 4 4 4 4 4 4 4 4 4 5 5 5 5 6 6 7 7 7 7 7 7
9 9 10 8 8 7 5 5 4 4 4 5 5 5 6 7 7 7 6 6 6 6 6 5 5 4 5 5 5 5 6 6 6 6 7 7 8 8 8 8 8 8 8
9 10 10 9 8 7 7 6 6 6 6 6 6 6 7 7 7 8 8 8 7 7 7 7 6 6 6 6 7 7 7 7 7 8 8 8 9 9 9 9 9 10 10
9 9 10 10 10 9 8 7 7 7 8 7 7 8 8 8 8 8 8 8 8 8 8 8 8 8 7 7 8 8 8 8 8 8 8 9 9 9 9 10 10 10 11
9 10 10 11 11 10 9 8 7 8 7 7 8 8 8 9 9 9 9 9 9 8 9 9 9 9 9 9 9 9 9 9 9 9 9 9 9 9 9 9 10 11 11
9 10 10 11 11 10 9 9 8 8 8 8 9 9 9 10 10 10 10 9 9 9 9 9 10 10 10 10 10 9 10 9 10 9 10 10 10 10 10 10 11 11 11
9 9 10 11 11 11 11 10 9 9 10 10 10 10 10 11 11 11 10 10 10 10 10 10 10 10 10 10 10 10 10 10 10 11 11 12 12 12 12 12 11 11 11
9 9 10 10 10 11 11 11 10 10 11 11 11 11 12 12 12 11 12 12 11 11 11 12 12 11 10 10 10 11 10 11 11 12 12 13 13 13 12 12 11 12 11
10 10 10 10 11 11 11 11 11 11 11 12 12 13 13 13 13 12 12 12 12 13 12 12 12 12 11 11 11 12 11 12 12 12 13 14 14 13 13 13 13 12 12
10 10 10 10 11 11 11 11 12 12 13 13 13 14 14 15 14 13 13 13 13 14 13 13 13 13 13 13 13 13 13 13 13 13 14 14 14 15 14 14 14 14 14
10 10 10 11 11 12 12 12 13 13 14 14 14 15 15 15 14 14 14 14 14 14 14 14 14 14 14 14 14 14 15 15 15 14 14 15 14 15 15 15 15 16 15
11 11 11 12 12 12 13 13 13 14 14 15 15 15 14 14 14 14 14 14 14 15 15 15 15 16 16 15 15 16 17 17 16 15 15 15 15 15 15 16 16 16 16
12 12 12 13 13 13 13 13 14 15 16 16 16 15 15 15 15 15 15 15 15 15 15 15 16 16 16 16 17 17 17 17 17 17 17 15 15 16 16 16 16 16 16

GEFSSE_500_meanwind_378.txt.gz
Wind_Speed
9 9 9 9 9 8 7 7 7 7 6 6 5 5 4 3 3 3 3 3 3 3 3 3 3 4 4 4 5 6 6 5 5 5 6 6 6 5 5 5 4 4 4
9 9 9 8 8 8 8 8 7 7 6 6 5 5 4 3 3 3 2 3 3 3 2 2 2 3 3 4 4 4 5 5 5 5 5 5 5 4 5 4 4 4 4
9 9 8 8 8 8 8 7 7 7 6 5 5 4 3 3 3 3 2 2 2 2 1 1 1 2 3 4 3 4 5 5 5 4 4 5 4 4 4 4 4 4 4
10 10 9 8 8 8 8 7 7 7 6 5 5 4 3 3 2 2 2 1 1 0 0 0 1 2 2 3 3 4 4 5 4 4 4 4 3 3 3 3 3 4 4
10 9 8 8 8 8 8 7 6 6 6 5 4 4 3 2 2 2 1 1 0 0 1 1 1 1 2 3 3 4 4 4 4 4 4 4 3 3 3 3 3 3 3
10 9 9 9 8 7 7 7 6 5 5 5 4 4 3 2 2 1 1 1 2 2 1 1 1 1 2 3 3 3 3 4 4 4 4 3 3 4 4 3 4 3 3
10 9 9 9 9 8 7 7 6 6 5 4 4 4 3 3 2 2 1 1 2 2 1 0 1 1 1 2 2 3 3 3 4 4 4 4 4 4 4 4 4 4 4
10 10 9 9 9 8 8 7 6 6 5 4 3 3 3 2 1 1 1 1 2 2 1 1 1 0 1 2 2 3 2 3 3 3 3 4 4 4 4 4 3 3 4
10 10 10 9 8 8 8 8 7 5 5 5 4 4 3 2 2 1 2 2 2 2 1 1 1 1 1 2 2 3 3 3 3 3 3 4 4 4 4 4 4 3 3
10 9 9 8 8 8 8 7 6 5 5 5 5 4 4 3 3 3 3 3 3 2 2 1 0 1 1 2 2 3 3 3 3 4 4 4 4 4 4 4 5 4 4
9 9 9 8 7 7 7 7 7 6 6 5 5 5 4 4 4 4 4 3 3 2 3 2 1 2 1 2 2 3 3 3 3 4 4 4 5 4 4 5 6 6 5
9 9 9 9 8 6 7 7 6 6 5 5 5 5 5 5 5 4 4 5 4 4 3 2 2 2 1 1 2 4 4 4 4 4 4 4 5 5 5 5 6 6 6
10 9 9 8 8 7 7 6 6 6 5 5 5 5 4 4 4 5 5 4 3 3 3 3 3 3 3 2 3 4 5 5 5 5 5 5 5 6 5 5 6 7 7
10 10 9 8 8 8 7 7 7 6 5 5 5 5 5 4 4 4 5 4 4 4 4 4 3 3 3 4 5 5 5 6 6 6 7 6 7 7 7 6 7 7 8
10 10 9 9 8 8 7 7 7 7 6 6 5 5 5 5 4 4 4 4 4 4 4 3 3 4 3 3 5 6 6 7 8 8 7 8 8 8 8 8 8 8 9
10 10 9 9 8 7 7 7 8 8 7 6 5 6 6 5 5 5 5 5 4 3 3 4 4 4 4 4 5 7 7 7 8 8 8 8 8 9 9 9 9 9 10
10 9 9 8 8 8 7 7 8 7 7 7 6 6 6 5 5 6 5 5 4 4 4 4 4 5 5 6 7 7 8 8 8 7 8 8 8 9 10 10 10 11 10
9 9 9 8 8 8 8 8 8 8 7 7 7 7 7 6 6 6 6 5 5 5 5 5 5 6 6 6 7 8 8 9 9 8 8 8 9 9 10 11 11 12 12
9 9 9 8 8 8 8 8 8 7 7 8 8 8 8 7 6 7 6 6 6 6 7 7 7 7 7 7 7 8 8 8 9 9 9 9 9 9 10 11 12 12 12
10 9 9 9 8 8 8 8 8 8 8 8 8 8 8 8 8 8 7 7 7 7 8 8 8 8 8 8 7 8 8 8 9 10 10 10 11 11 11 11 12 12 12
10 9 9 9 8 8 8 8 8 8 9 9 9 9 9 8 9 8 7 8 8 9 9 9 9 9 9 8 8 9 8 9 10 10 11 12 12 12 12 12 12 13 13
9 9 9 8 8 8 8 8 8 9 9 10 10 10 9 9 10 9 8 9 9 9 10 10 10 10 10 10 9 8 8 9 10 10 11 12 12 12 13 13 13 14 14
10 9 9 9 9 9 9 9 10 10 10 10 10 11 11 11 11 10 10 10 10 10 11 11 11 10 11 11 11 10 9 9 10 11 11 12 12 12 13 13 14 14 15
10 10 10 10 10 9 9 10 10 11 11 11 11 11 11 11 11 11 10 10 10 10 11 11 11 11 10 11 11 11 11 11 11 12 13 13 12 12 13 14 15 16 15
11 10 10 10 10 10 10 10 11 11 12 12 12 12 12 12 12 12 11 11 11 11 11 11 11 11 11 12 12 12 12 12 13 14 14 14 14 14 13 14 14 14 14
12 11 12 11 11 11 11 11 12 12 12 12 13 13 13 12 12 12 13 12 13 13 13 13 13 13 13 13 13 14 14 14 15 15 14 15 15 15 15 15 15 15 16

GEFSSE_500_meanwind_384.txt.gz
Wind_Speed
10 9 9 8 9 9 9 9 8 8 7 7 6 6 6 6 6 5 4 4 3 3 3 3 3 3 4 3 2 2 2 3 3 3 3 4 4 4 5 4 4 4 5
10 9 9 9 9 9 9 8 8 7 7 6 6 6 6 6 6 5 5 4 3 3 2 2 3 3 3 2 2 2 2 3 3 3 3 4 4 4 4 4 4 5 5
10 9 9 9 9 10 9 8 8 7 6 6 6 5 5 5 5 5 5 4 3 2 1 2 1 1 1 1 2 2 2 2 3 3 3 4 4 4 4 4 4 4 4
9 9 9 10 9 9 9 8 8 7 7 6 5 4 4 4 4 4 4 4 3 2 1 0 2 1 1 1 1 2 2 2 2 3 4 5 5 4 4 4 4 4 4
9 9 9 10 10 9 9 8 8 7 7 6 5 5 4 4 3 3 3 3 3 3 2 1 1 1 2 1 2 2 2 3 3 3 4 5 5 4 4 4 4 5 4
10 9 10 10 10 9 9 9 8 7 6 6 5 5 4 4 3 3 3 3 3 2 2 1 1 1 2 2 2 3 3 3 3 3 4 5 6 5 4 4 4 4 4
10 10 10 11 10 10 10 9 8 7 6 6 5 4 4 3 2 2 2 2 2 2 1 1 1 1 2 2 2 3 3 3 3 4 4 4 4 4 4 4 4 4 4
10 10 10 10 10 10 10 9 8 7 7 6 5 4 3 2 2 2 1 1 1 1 1 1 2 1 2 2 2 2 2 3 3 3 3 4 3 3 4 4 5 5 5
10 10 10 10 9 9 9 8 7 6 6 4 4 3 2 2 2 1 1 1 1 2 2 2 2 1 1 2 2 2 3 3 4 4 4 4 4 4 4 5 5 5 5
10 10 9 9 9 9 8 7 7 6 5 4 3 2 2 2 2 2 1 2 2 2 3 2 2 1 2 2 3 3 4 3 3 4 4 4 4 4 4 5 5 5 6
10 9 9 9 10 9 8 7 6 6 6 5 3 3 3 3 3 3 2 2 2 2 3 3 3 2 1 2 3 4 4 4 4 4 5 5 5 5 5 5 5 5 6
11 9 9 9 9 9 8 8 7 7 6 6 5 4 3 3 3 3 3 3 2 2 2 2 2 1 2 2 3 4 5 5 4 4 5 6 6 6 6 6 6 6 6
10 10 9 8 8 8 8 7 7 7 7 6 6 5 4 4 4 4 4 4 3 2 2 2 2 2 3 3 4 4 5 5 5 5 5 6 6 7 7 7 7 7 7
10 9 9 8 8 8 7 7 7 7 7 6 5 5 5 4 4 4 4 4 4 3 3 2 3 3 3 3 4 4 5 5 6 6 6 7 7 8 8 8 8 8 8
10 9 8 8 8 8 7 7 6 7 7 6 6 5 5 4 4 5 4 4 4 3 3 4 4 4 3 3 4 5 6 6 6 7 7 7 8 9 10 10 9 9 9
9 9 8 7 7 7 7 7 6 7 7 7 6 5 5 5 5 5 4 4 3 3 4 4 4 4 4 5 5 6 6 7 7 7 8 8 9 10 10 10 10 10 10
9 8 7 7 6 6 6 6 6 6 7 7 7 6 6 5 5 5 5 4 4 4 4 4 5 5 5 5 6 7 8 8 8 7 7 8 9 9 9 10 11 11 11
8 7 7 7 6 6 6 6 6 6 6 7 7 6 6 6 6 6 5 5 5 5 5 5 5 6 7 7 7 8 8 9 9 9 9 9 9 10 10 11 11 12 12
8 7 7 6 6 6 6 6 6 6 6 7 7 7 7 7 7 7 6 6 6 6 6 6 6 7 7 8 8 9 9 9 10 10 11 11 10 11 11 12 12 12 12
8 8 7 7 7 6 6 6 6 7 7 8 7 8 8 8 8 8 8 7 7 7 7 7 8 8 8 8 8 9 9 10 10 10 11 11 12 11 12 12 13 12 13
8 8 7 7 7 7 7 7 7 7 7 7 7 8 8 8 8 8 8 8 7 8 8 8 9 9 9 10 10 10 10 10 11 11 11 11 12 12 12 13 13 13 13
8 7 7 7 7 7 7 7 7 7 8 7 8 8 8 9 9 8 8 9 8 8 9 9 10 10 10 11 11 11 11 12 12 12 12 12 13 13 13 13 14 14 14
8 7 7 7 7 7 7 7 7 7 8 8 9 9 9 9 9 9 9 9 8 9 9 10 11 11 11 12 12 13 13 13 12 12 13 13 14 14 14 13 13 14 15
8 8 7 7 7 7 8 8 8 8 8 9 10 9 10 10 10 10 10 10 10 10 10 11 11 11 12 12 13 13 12 12 12 13 13 13 14 14 14 15 15 15 15
8 8 8 8 8 8 8 9 9 9 10 10 11 11 11 11 11 12 12 12 12 12 12 13 12 12 12 12 12 13 13 13 13 13 13 14 14 14 15 16 16 17 17
9 9 9 9 9 9 9 10 10 11 11 11 12 12 13 13 13 13 13 13 13 13 13 14 13 13 13 13 13 13 13 14 14 14 14 14 15 16 17 17 18 18 18